Date,TemperatureHighF,TemperatureAvgF,TemperatureLowF,DewpointHighF,DewpointAvgF,DewpointLowF,HumidityHigh,HumidityAvg,HumidityLow,PressureMaxIn,PressureMinIn,WindSpeedMaxMPH,WindSpeedAvgMPH,GustSpeedMaxMPH,PrecipitationSumIn
2013-1-1,43.9,40.3,33.1,27.8,24.1,14.1,60,52,45,29.82,29.62,17,5,17,0.00
2013-1-2,38.7,31.4,27.0,16.4,12.1,8.5,51,44,39,30.00,29.79,14,4,14,0.00
2013-1-3,39.2,30.8,25.2,17.9,13.3,11.1,56,48,40,30.00,29.88,11,3,11,0.00
2013-1-4,40.8,34.7,28.4,20.7,17.8,14.1,57,50,42,29.91,29.76,18,6,18,0.00
2013-1-5,45.5,36.1,29.3,23.0,18.4,14.9,55,49,39,30.09,29.82,15,4,15,0.00
2013-1-6,49.5,40.2,34.5,35.1,27.4,19.2,79,61,44,30.03,29.76,11,3,11,0.09
2013-1-7,51.1,39.8,32.2,30.8,24.2,19.6,68,54,38,30.21,29.82,12,3,12,0.09
2013-1-8,52.9,40.2,30.6,33.0,26.9,20.7,76,60,42,30.24,30.15,15,3,15,0.09
2013-1-9,56.8,46.7,35.1,39.3,34.3,27.3,79,63,49,30.18,29.94,14,3,14,0.09
2013-1-10,53.4,45.1,37.4,32.4,25.0,20.7,56,45,36,30.33,30.06,13,3,13,0.09
2013-1-11,50.7,43.4,37.0,45.1,34.5,21.9,89,71,53,30.33,29.91,6,1,6,0.25
2013-1-12,52.2,50.2,47.5,48.1,47.0,45.8,95,88,85,29.94,29.91,6,2,6,0.25
2013-1-15,42.1,40.6,38.5,34.4,30.4,27.9,85,67,60,30.06,29.97,6,2,6,0.12
2013-1-16,44.8,40.1,37.4,42.7,37.9,34.1,96,92,84,30.00,29.56,10,3,10,0.70
2013-1-17,46.8,41.4,38.1,37.5,33.0,27.6,91,73,50,29.88,29.74,11,3,11,0.00
2013-1-18,38.5,33.7,27.0,31.9,16.5,7.9,77,50,33,30.30,29.76,17,4,17,0.05
2013-1-19,55.2,42.0,28.6,28.8,22.6,11.6,59,47,35,30.21,29.74,26,6,26,0.00
2013-1-20,60.1,46.4,34.2,32.3,23.3,8.7,54,41,29,29.82,29.47,24,7,24,0.00
2013-1-21,39.2,33.5,27.1,24.2,13.8,8.4,78,45,33,29.88,29.56,7,2,7,0.00
2013-1-22,30.2,21.9,15.1,18.2,3.1,-4.9,69,44,35,29.97,29.59,22,6,22,0.00
2013-1-23,29.1,17.4,12.0,5.6,-2.5,-7.2,46,41,35,30.03,29.91,17,4,17,0.00
2013-1-24,30.9,19.9,10.9,7.1,-0.4,-5.8,53,41,32,30.15,29.85,16,4,16,0.00
2013-1-25,31.8,20.9,14.7,11.3,3.6,-4.4,65,47,37,30.18,29.79,12,3,12,0.00
2013-1-26,33.4,22.3,12.7,12.8,7.0,2.2,72,53,39,30.12,29.79,15,4,15,0.00
2013-1-27,39.9,26.5,15.4,16.5,8.1,1.0,54,46,37,30.27,30.12,13,3,13,0.00
2013-1-28,38.1,32.7,23.9,33.3,22.6,8.6,85,67,51,30.24,29.76,11,3,11,0.16
2013-1-29,55.8,43.8,35.6,44.6,37.9,31.8,90,80,59,29.91,29.76,7,2,7,0.05
2013-1-30,65.3,55.4,45.5,57.5,51.7,42.7,97,88,71,29.82,29.14,29,5,29,0.00
2013-1-31,60.1,47.8,31.5,58.8,32.0,10.5,98,57,34,29.59,28.88,32,11,32,0.37
2013-2-1,37.6,30.6,24.6,19.3,9.7,4.3,62,41,33,30.00,29.59,23,6,23,0.00
2013-2-2,38.1,28.5,20.1,17.3,7.8,2.9,65,42,31,30.06,29.79,15,5,15,0.00
2013-2-3,34.3,27.4,22.8,23.3,18.4,14.9,76,68,60,29.79,29.56,6,1,6,0.00
2013-2-4,35.8,29.1,23.0,21.3,11.5,7.1,75,48,37,29.76,29.56,23,6,23,0.00
2013-2-5,37.8,33.9,29.3,31.9,28.0,17.5,88,79,60,29.71,29.62,8,2,8,0.04
2013-2-6,45.9,36.2,29.1,32.0,23.6,14.1,89,62,41,30.09,29.65,17,3,17,0.00
2013-2-7,38.8,33.0,25.3,31.3,17.2,10.5,74,52,43,30.24,30.03,7,1,7,0.00
2013-2-8,42.8,39.1,31.3,41.2,36.5,30.3,98,91,74,30.03,29.32,21,5,21,1.74
2013-2-9,41.7,31.0,22.5,31.1,18.6,4.8,98,63,41,30.06,29.47,24,6,24,0.00
2013-2-10,47.3,29.5,15.3,23.8,12.8,3.2,65,50,33,30.24,30.06,10,2,10,0.00
2013-2-11,55.6,47.1,34.3,54.0,43.7,23.8,97,88,65,30.09,29.38,22,4,22,0.54
2013-2-12,53.2,43.9,35.1,43.7,26.4,20.6,86,52,36,29.74,29.47,24,5,24,0.00
2013-2-13,49.5,37.9,29.7,31.5,25.5,19.4,89,62,44,29.74,29.41,6,2,6,0.04
2013-2-14,51.8,39.7,33.1,36.9,32.4,29.9,92,76,48,29.76,29.44,8,2,8,0.37
2013-2-16,34.5,33.6,33.3,24.7,22.0,18.9,70,62,56,29.56,29.47,10,5,10,0.37
2013-2-17,36.3,29.8,21.9,18.9,7.4,-1.6,56,38,30,29.76,29.44,25,7,25,0.00
2013-2-18,41.7,29.9,20.1,13.3,5.6,-1.8,41,35,29,30.00,29.76,28,6,28,0.00
2013-2-19,56.8,43.2,30.7,44.3,30.4,9.8,85,62,41,29.94,29.44,18,4,18,0.20
2013-2-20,40.6,33.4,26.8,29.0,15.5,7.3,65,48,37,29.76,29.50,23,7,23,0.00
2013-2-21,42.3,31.8,24.6,16.6,11.0,6.7,49,42,34,30.00,29.74,25,6,25,0.00
2013-2-22,41.7,34.1,24.6,32.5,20.3,9.3,79,57,47,30.15,30.00,8,2,8,0.00
2013-2-23,46.6,42.4,38.3,44.2,39.9,32.5,98,91,79,30.00,29.50,17,2,17,0.50
2013-2-24,56.8,44.2,38.7,41.7,35.1,24.3,97,74,40,29.65,29.47,23,4,23,0.38
2013-2-26,42.1,41.5,41.0,40.5,38.4,36.7,94,89,84,29.71,29.56,14,4,14,0.33
2013-2-27,60.4,50.1,42.1,55.2,44.2,34.7,98,82,49,29.56,29.23,22,5,22,0.63
2013-2-28,43.0,41.2,38.1,28.3,26.5,25.5,67,56,50,29.38,29.35,13,5,13,0.00
2013-3-1,52.9,41.6,33.8,31.6,26.5,22.6,79,56,40,29.53,29.38,14,4,14,0.63
2013-3-2,50.2,40.0,34.2,26.0,21.2,18.2,56,47,37,29.56,29.44,13,4,13,0.63
2013-3-3,45.0,36.4,31.1,21.0,17.0,13.9,54,45,38,29.50,29.35,17,5,17,0.63
2013-3-4,48.7,37.3,29.1,22.7,16.6,12.1,52,43,34,29.68,29.47,20,6,20,0.63
2013-3-5,57.4,40.5,31.3,30.0,22.0,16.5,73,48,34,29.76,29.65,10,2,10,0.63
2013-3-6,44.4,40.1,36.0,38.6,33.5,27.5,89,77,67,29.71,29.44,34,8,34,0.63
2013-3-7,45.9,38.2,34.3,34.8,32.4,29.5,96,80,57,29.82,29.59,17,6,17,0.63
2013-3-8,41.7,36.8,33.1,34.4,31.6,26.4,90,81,60,29.91,29.74,13,4,13,0.63
2013-3-9,56.1,39.3,33.8,29.4,25.0,22.3,71,57,35,30.06,29.91,11,3,11,0.04
2013-3-10,53.2,40.4,31.1,34.9,30.0,24.6,82,67,48,30.15,30.03,8,1,8,0.00
2013-3-11,62.2,47.4,35.1,47.5,39.9,30.9,88,76,54,30.06,29.85,11,2,11,0.00
2013-3-12,56.1,52.4,47.3,55.3,48.6,40.8,97,87,75,29.85,29.44,20,5,20,0.79
2013-3-13,61.5,49.1,39.4,41.5,31.5,22.8,80,54,30,29.68,29.56,15,5,15,0.00
2013-3-14,43.2,38.7,35.8,14.6,11.2,8.8,33,32,30,29.71,29.59,19,6,19,0.00
2013-3-15,52.7,41.6,30.7,25.5,17.1,8.1,42,37,32,29.76,29.44,23,6,23,0.00
2013-3-16,44.2,39.4,35.8,32.1,26.1,20.3,85,60,41,29.65,29.47,10,2,10,0.04
2013-3-17,48.4,38.0,30.7,31.3,22.4,14.4,85,56,37,30.03,29.65,13,2,13,0.05
2013-3-18,46.2,38.0,30.9,40.3,24.5,14.1,96,60,42,30.15,29.68,10,3,10,0.74
2013-3-19,52.2,44.1,41.0,41.4,38.7,28.1,97,83,45,29.68,29.41,13,4,13,0.46
2013-3-20,43.3,42.9,41.9,21.9,20.2,19.1,43,40,38,29.56,29.56,5,2,5,0.46
2013-3-21,41.9,35.9,31.1,27.1,20.5,11.8,72,54,41,29.56,29.38,11,3,11,0.46
2013-3-22,48.7,36.4,27.3,22.9,15.6,10.1,53,43,33,29.59,29.50,22,6,22,0.46
2013-3-23,57.0,47.4,37.2,25.8,19.7,14.9,43,33,28,29.68,29.53,21,6,21,0.04
2013-3-24,53.8,41.1,31.3,24.7,19.2,13.1,53,41,30,29.71,29.44,12,2,12,0.00
2013-3-25,40.8,38.8,35.4,34.9,29.6,23.2,92,71,52,29.44,29.17,18,4,18,0.58
2013-3-26,51.1,47.5,42.4,28.0,27.2,26.2,53,45,40,29.62,29.53,11,4,11,0.58
2013-3-27,63.5,46.4,35.8,32.8,26.2,22.5,65,47,27,29.74,29.59,18,5,18,0.00
2013-3-28,57.7,45.5,35.8,31.7,26.3,24.0,67,48,35,29.88,29.74,11,4,11,0.58
2013-3-29,66.6,48.8,36.7,34.1,26.0,22.4,60,42,27,29.91,29.79,13,4,13,0.58
2013-3-30,67.6,50.7,37.9,33.8,26.6,20.6,60,41,24,29.94,29.79,14,4,14,0.58
2013-3-31,59.5,48.5,39.4,47.3,34.6,22.5,88,60,43,29.91,29.44,13,4,13,0.58
2013-4-1,52.5,48.1,40.8,47.5,33.4,16.1,88,60,36,29.68,29.44,12,5,12,0.04
2013-4-2,54.5,42.2,32.7,22.6,15.5,10.2,45,34,27,29.85,29.68,19,5,24,0.00
2013-4-3,57.4,43.7,32.5,22.8,14.9,10.3,40,31,25,30.00,29.82,19,6,19,0.00
2013-4-4,60.6,48.6,36.9,26.5,22.3,14.8,49,36,26,30.18,29.88,10,3,10,0.00
2013-4-5,68.2,48.5,39.7,43.5,33.8,25.3,84,60,25,29.88,29.47,13,2,13,0.30
2013-4-6,39.2,38.0,37.0,22.7,22.4,21.9,55,53,51,30.09,30.09,2,1,2,0.00
2013-4-7,67.6,49.4,37.4,39.7,30.7,22.7,61,50,35,30.09,29.88,21,4,21,0.00
2013-4-9,80.4,75.4,69.8,42.0,41.2,40.4,35,29,25,29.71,29.65,11,2,11,0.00
2013-4-10,60.1,57.9,55.6,55.0,49.6,46.3,87,74,65,29.71,29.56,18,4,18,0.08
2013-4-11,66.0,57.3,48.2,61.0,51.0,42.6,91,80,64,29.79,29.56,10,2,10,0.04
2013-4-12,48.9,46.8,44.8,47.5,45.2,43.7,98,94,85,29.79,29.47,18,5,18,0.91
2013-4-13,68.0,52.5,42.4,49.9,42.1,34.1,97,71,34,29.76,29.50,13,3,13,0.00
2013-4-14,68.4,56.3,44.2,47.2,36.2,27.7,83,52,24,29.97,29.76,26,3,26,0.00
2013-4-15,64.8,53.5,47.5,40.8,34.8,29.5,69,50,36,30.15,29.97,7,2,7,0.00
2013-4-16,73.6,60.7,48.9,52.9,47.8,39.9,82,64,46,30.15,29.91,13,3,13,0.00
2013-4-17,72.3,61.9,51.1,56.2,47.4,38.0,86,61,36,30.06,29.91,13,3,13,0.00
2013-4-18,63.9,55.9,48.0,55.9,46.0,38.1,90,70,51,30.15,29.91,8,2,8,0.00
2013-4-19,79.0,67.1,57.2,63.9,59.9,54.0,93,79,54,29.91,29.47,21,5,21,0.00
2013-4-20,65.8,56.4,49.5,62.5,37.6,23.6,90,53,30,30.09,29.47,18,5,18,0.41
2013-4-21,61.5,48.9,38.5,29.8,24.1,16.8,57,38,28,30.39,30.09,13,3,13,0.00
2013-4-22,55.0,47.4,39.6,38.4,32.7,25.3,72,57,44,30.41,30.24,13,3,13,0.00
2013-4-23,51.8,47.3,44.6,43.1,39.3,34.8,88,74,67,30.24,29.91,15,4,15,0.00
2013-4-24,75.0,57.5,41.2,50.5,44.3,36.0,82,64,41,29.91,29.62,20,4,20,0.00
2013-4-25,72.1,58.2,47.7,51.3,36.5,30.0,81,47,24,30.06,29.68,21,4,21,0.00
2013-4-26,74.8,58.5,45.1,40.0,33.9,30.0,62,42,24,30.18,30.06,12,3,12,0.00
2013-4-27,74.8,58.7,43.3,38.6,32.5,27.9,68,40,23,30.21,30.03,7,2,7,0.00
2013-4-28,77.5,60.4,44.8,45.1,35.0,26.8,70,42,23,30.12,30.00,9,2,9,0.00
2013-4-30,51.6,50.2,48.9,38.5,38.0,37.4,67,63,59,30.12,30.09,5,1,5,0.00
2013-5-1,70.0,56.5,42.4,47.1,41.7,36.4,83,59,41,30.27,30.09,13,2,13,0.00
2013-5-3,52.5,51.8,50.2,42.7,41.3,40.0,71,67,63,30.15,30.15,3,1,3,0.00
2013-5-4,52.0,47.9,45.5,45.3,41.8,40.8,86,79,70,30.15,30.09,5,2,5,0.00
2013-5-13,58.5,52.1,46.8,27.2,24.2,21.8,43,34,28,29.91,29.79,15,2,15,0.00
2013-5-14,70.2,55.1,40.8,34.5,28.9,25.1,63,38,24,29.94,29.74,13,3,13,0.00
2013-5-15,75.7,62.9,51.1,54.1,45.3,27.5,67,53,41,29.88,29.44,13,3,13,0.00
2013-5-19,61.3,61.0,60.6,60.2,59.5,58.9,96,95,94,30.00,29.97,4,0,4,0.00
2013-5-20,80.4,69.3,61.3,70.0,64.7,60.2,98,86,67,30.00,29.76,6,1,6,0.00
2013-5-21,92.3,77.5,65.8,72.2,65.7,63.2,94,70,42,29.82,29.59,11,4,11,0.04
2013-5-28,62.1,61.6,61.3,59.1,58.8,58.4,91,90,90,29.94,29.91,2,0,2,0.05
2013-5-29,94.6,76.9,60.6,70.8,62.3,56.5,92,65,31,29.91,29.71,14,3,16,0.00
2013-5-30,98.1,82.8,71.1,69.2,63.2,57.0,76,54,28,29.94,29.82,11,4,11,0.00
2013-5-31,98.4,82.6,71.2,69.6,64.5,61.3,79,57,35,29.91,29.76,10,3,10,0.00
2013-6-1,99.0,81.9,70.5,67.8,63.8,60.2,79,57,30,29.82,29.62,19,4,19,0.00
2013-6-2,75.2,73.5,71.6,65.0,63.6,62.4,79,71,66,29.71,29.62,14,4,17,0.04
2013-6-3,80.8,72.8,68.7,71.2,67.8,62.6,92,85,69,29.65,29.56,12,2,12,0.87
2013-6-4,68.7,64.4,59.2,66.0,54.5,43.4,91,72,42,29.85,29.65,4,1,4,0.00
2013-6-5,79.5,67.5,55.8,56.3,48.9,40.4,82,52,39,30.00,29.85,10,2,10,0.00
2013-6-6,77.0,67.3,59.4,61.5,58.3,55.3,89,74,52,30.00,29.85,7,1,7,0.04
2013-6-7,70.7,67.0,63.9,69.8,65.0,60.1,97,93,86,29.85,29.38,7,1,8,3.69
2013-6-8,80.6,70.8,60.4,67.9,63.1,58.1,96,78,58,29.91,29.35,16,3,16,0.63
2013-6-9,86.5,74.6,65.3,63.2,60.7,55.4,81,64,42,30.03,29.91,8,2,8,0.00
2013-6-10,72.3,69.6,66.4,69.2,65.4,60.5,95,87,71,30.00,29.62,12,2,12,1.20
2013-6-11,88.5,76.9,69.3,69.7,64.8,57.7,96,69,42,29.62,29.38,16,5,16,0.00
2013-6-12,88.3,76.1,68.2,59.4,55.8,50.7,70,52,30,29.62,29.53,17,3,17,0.00
2013-6-13,80.1,70.5,63.7,68.3,60.7,55.0,91,72,59,29.62,29.14,16,2,16,0.75
2013-6-14,75.6,63.8,56.8,60.2,55.0,51.4,90,75,45,29.71,29.20,13,3,13,0.08
2013-6-15,88.5,72.5,60.1,61.5,54.4,48.1,83,57,30,29.82,29.71,10,3,10,0.00
2013-6-16,90.7,75.6,64.2,68.4,59.6,55.4,75,59,38,29.79,29.59,18,4,18,0.00
2013-6-17,92.7,78.4,68.4,69.2,63.7,59.2,83,63,38,29.79,29.62,14,4,14,0.00
2013-6-18,81.7,70.6,64.9,68.7,63.3,59.1,92,78,62,29.71,29.56,6,1,6,2.99
2013-6-19,83.3,71.3,63.5,64.1,56.0,48.3,94,62,36,29.94,29.62,12,2,12,0.00
2013-6-20,87.8,72.0,59.2,59.5,52.6,46.2,80,53,33,30.12,29.94,8,2,8,0.00
2013-6-21,87.1,73.0,61.0,60.3,53.4,49.5,79,52,33,30.15,30.03,6,2,6,0.00
2013-6-22,88.3,73.8,60.4,63.7,56.9,51.7,83,58,34,30.12,29.94,6,2,6,0.00
2013-6-23,93.0,77.9,66.0,70.7,63.7,51.4,85,63,48,30.06,29.88,12,3,12,0.04
2013-6-24,99.1,81.0,72.3,75.8,68.0,55.7,91,68,34,29.91,29.76,19,4,19,0.00
2013-6-25,96.6,81.5,70.3,74.2,65.7,60.9,86,61,34,29.79,29.62,14,4,14,0.00
2013-6-26,97.0,82.5,72.3,70.9,65.4,61.1,87,59,33,29.68,29.53,12,3,12,0.50
2013-6-27,92.5,79.5,72.1,75.6,70.8,67.7,91,76,53,29.59,29.35,15,2,18,0.04
2013-6-28,93.2,80.2,72.0,71.6,68.6,63.5,89,70,39,29.38,29.23,15,4,15,0.09
2013-6-29,88.0,77.2,69.8,73.4,69.1,66.6,91,77,58,29.47,29.26,8,2,8,0.04
2013-6-30,88.3,76.8,72.0,76.9,70.8,67.1,90,82,67,29.71,29.47,10,2,10,0.04
2013-7-1,88.7,76.7,74.1,75.8,72.0,70.3,91,86,62,29.85,29.68,14,2,14,0.12
2013-7-2,89.6,78.5,73.6,75.9,72.2,70.6,91,82,61,29.97,29.82,12,3,12,0.00
2013-7-3,87.6,78.5,72.1,77.6,71.8,67.7,89,80,66,30.03,29.94,9,2,10,0.59
2013-7-4,96.4,82.4,73.6,76.5,71.5,67.1,93,72,45,30.06,29.94,13,4,13,0.00
2013-7-5,96.4,83.4,72.9,87.5,71.6,67.4,95,70,40,30.03,29.88,14,4,14,0.00
2013-7-6,100.6,86.0,75.0,76.2,70.2,65.2,88,63,36,29.94,29.79,12,4,12,0.00
2013-7-7,101.3,86.8,75.7,74.3,69.8,65.8,83,60,36,29.85,29.65,14,4,14,0.00
2013-7-8,95.5,81.1,73.2,71.2,65.8,59.5,78,61,38,29.85,29.76,20,4,20,0.00
2013-7-9,93.0,80.9,73.0,75.1,68.6,64.0,88,68,43,29.88,29.79,11,3,11,0.04
2013-7-10,92.7,81.2,73.2,76.8,72.0,66.9,89,75,52,29.82,29.56,13,3,13,0.16
2013-7-11,87.6,79.1,75.7,74.5,71.7,69.5,90,79,58,29.68,29.59,11,3,11,0.08
2013-7-12,77.0,73.7,70.3,71.8,67.6,61.8,95,82,64,29.85,29.68,13,3,13,0.17
2013-7-13,92.7,79.8,71.1,78.4,73.1,69.6,96,81,60,30.09,29.85,6,1,6,0.00
2013-7-14,93.7,82.4,74.5,75.6,72.8,70.1,91,74,51,30.15,30.03,11,2,11,0.00
2013-7-15,100.0,86.1,74.7,74.7,70.5,65.8,89,63,34,30.06,29.91,11,3,11,0.00
2013-7-16,100.0,86.3,77.2,71.7,66.7,60.1,75,54,32,29.97,29.88,8,1,8,0.00
2013-7-17,99.7,86.4,76.1,72.7,67.3,63.5,77,55,35,29.97,29.79,6,1,6,0.00
2013-7-18,103.3,87.9,77.0,77.0,69.8,64.3,74,57,34,29.85,29.68,9,3,9,0.00
2013-7-19,102.4,89.0,79.5,78.2,73.1,68.0,84,62,35,29.76,29.56,15,5,15,0.00
2013-7-20,99.1,87.5,77.7,75.2,71.5,65.8,84,61,36,29.62,29.47,15,6,15,0.00
2013-7-21,92.5,79.3,73.4,74.3,70.3,66.4,88,75,46,29.74,29.59,10,2,10,0.09
2013-7-22,89.2,80.0,74.7,77.8,74.0,70.9,91,82,67,29.71,29.56,6,1,6,0.00
2013-7-23,89.8,80.6,73.8,76.2,72.3,69.1,93,77,57,29.56,29.26,13,3,13,0.91
2013-7-24,93.2,79.6,72.5,69.9,65.0,53.3,84,63,40,29.68,29.41,11,3,11,0.00
2013-7-25,73.8,68.2,66.2,59.8,56.5,52.2,79,67,49,29.79,29.68,14,4,14,0.00
2013-7-26,87.1,73.6,66.0,64.8,61.6,58.6,81,68,41,29.85,29.74,10,2,10,0.00
2013-7-27,90.1,75.6,67.3,67.3,63.3,59.8,85,67,42,29.85,29.71,9,2,9,0.00
2013-7-28,83.7,75.1,67.6,70.2,67.1,63.5,90,77,60,29.76,29.59,6,1,8,0.00
2013-7-29,90.1,76.7,68.7,70.3,63.5,50.6,94,67,34,29.88,29.71,9,2,10,0.96
2013-7-30,90.0,75.0,64.2,56.9,54.2,50.8,71,50,30,29.97,29.79,9,2,9,0.00
2013-7-31,88.2,74.5,65.1,62.0,57.8,54.0,76,58,38,29.94,29.82,6,1,6,0.00
2013-8-1,77.9,72.3,70.0,68.1,64.8,60.3,93,78,66,29.82,29.59,8,2,8,0.37
2013-8-2,90.7,77.3,69.1,68.2,63.9,56.7,95,67,35,29.71,29.56,11,3,11,0.00
2013-8-3,80.2,73.6,68.9,67.7,64.2,61.8,85,73,58,29.71,29.56,11,4,11,0.00
2013-8-4,87.6,74.1,65.1,63.3,57.1,47.6,90,59,32,29.74,29.53,13,2,13,0.00
2013-8-5,85.8,71.4,61.5,56.9,50.5,44.6,70,49,25,29.82,29.71,8,2,8,0.00
2013-8-6,88.7,73.2,63.1,61.0,55.1,50.1,69,55,31,29.91,29.79,6,2,6,0.00
2013-8-7,82.4,73.6,70.0,67.9,64.2,59.8,86,73,59,29.91,29.85,6,1,6,0.04
2013-8-8,87.6,76.9,71.2,75.8,71.1,67.9,94,83,67,29.85,29.76,13,2,13,1.37
2013-8-9,91.9,79.7,74.8,77.3,73.4,70.6,92,82,56,29.82,29.59,12,3,12,0.29
2013-8-10,86.9,78.5,73.4,74.0,66.8,58.3,94,70,43,29.79,29.65,8,2,8,0.00
2013-8-11,86.9,74.6,65.3,66.7,61.1,56.4,83,65,41,29.91,29.74,5,1,6,0.00
2013-8-12,84.9,74.5,68.7,70.6,67.8,64.9,90,80,63,29.82,29.71,6,1,6,0.04
2013-8-13,81.3,74.2,70.5,74.3,70.6,67.6,96,89,72,29.71,29.44,7,1,7,0.87
2013-8-14,80.1,70.2,63.0,68.7,52.5,45.0,89,56,35,29.82,29.50,12,3,12,0.00
2013-8-15,81.0,68.1,57.9,53.9,50.9,47.0,71,56,34,29.94,29.82,6,2,6,0.00
2013-8-16,87.1,70.9,60.4,56.4,52.6,48.9,72,54,31,29.97,29.88,6,2,6,0.00
2013-8-17,85.8,71.0,61.0,60.5,55.7,52.3,78,60,37,30.06,29.97,5,0,5,0.00
2013-8-18,78.3,70.1,65.1,63.7,59.0,56.3,83,68,52,30.03,29.91,10,1,10,0.00
2013-8-19,80.8,71.6,63.9,61.5,58.0,54.3,78,63,44,29.94,29.82,9,3,10,0.00
2013-8-20,90.0,75.8,66.7,68.8,64.8,60.8,91,71,45,29.91,29.82,8,2,8,0.00
2013-8-21,93.2,78.7,69.1,70.5,65.3,58.8,90,67,34,29.97,29.82,10,3,10,0.00
2013-8-22,87.6,76.2,71.4,72.5,67.7,63.9,86,75,58,29.85,29.68,10,4,10,0.00
2013-8-23,82.9,74.0,67.5,67.4,62.6,55.2,90,69,42,29.85,29.65,7,2,7,0.00
2013-8-24,82.4,70.3,63.7,62.2,58.4,56.2,89,68,42,30.12,29.85,10,2,10,0.17
2013-8-25,86.7,70.5,60.1,60.2,54.2,46.5,90,60,34,30.21,30.03,9,2,9,0.00
2013-8-26,90.7,74.4,65.1,63.0,57.8,47.0,72,58,36,30.03,29.74,15,5,15,0.00
2013-8-27,91.0,78.6,71.2,67.6,64.4,60.3,81,63,38,29.71,29.56,12,3,12,0.00
2013-8-28,82.8,75.1,70.3,71.8,68.5,64.3,92,80,66,29.68,29.62,6,1,6,0.00
2013-8-29,80.4,73.7,70.5,70.8,67.0,61.8,95,80,56,29.82,29.65,11,2,11,0.04
2013-8-30,87.1,75.6,69.8,69.7,65.8,63.6,84,72,52,29.82,29.65,10,3,10,0.00
2013-8-31,92.7,78.1,69.4,73.7,69.1,66.1,91,75,50,29.71,29.56,12,4,12,0.00
2013-9-1,90.9,78.8,73.4,75.6,71.5,68.8,90,79,59,29.65,29.56,8,2,8,0.00
2013-9-2,81.9,75.9,72.3,74.4,72.3,69.6,93,89,73,29.59,29.47,6,1,6,0.04
2013-9-3,86.5,76.5,69.1,74.4,66.4,54.4,96,73,45,29.68,29.50,10,2,10,0.00
2013-9-4,87.1,72.2,62.6,58.4,54.1,48.9,79,56,29,29.82,29.68,11,3,11,0.00
2013-9-5,81.1,70.6,61.7,59.0,52.6,40.5,73,54,35,29.91,29.79,11,3,11,0.00
2013-9-6,77.9,64.5,55.0,50.1,44.2,40.5,63,49,34,30.09,29.91,11,2,11,0.00
2013-9-7,82.8,66.2,54.9,54.5,48.0,42.0,75,54,30,29.97,29.71,9,2,10,0.00
2013-9-8,86.4,73.3,64.2,63.6,56.5,43.2,80,57,39,29.82,29.62,10,4,12,0.00
2013-9-9,78.8,68.3,59.5,58.3,50.3,43.2,68,53,39,30.06,29.82,8,2,8,0.00
2013-9-10,90.9,77.5,68.9,72.0,65.7,58.1,80,68,52,30.03,29.82,12,3,12,0.00
2013-9-11,97.0,81.4,73.0,77.8,69.7,66.1,89,70,44,29.91,29.74,13,3,13,0.00
2013-9-12,91.9,79.1,72.7,72.2,68.2,63.0,86,70,45,29.79,29.47,14,3,14,0.00
2013-9-13,81.1,71.7,62.4,67.3,59.1,47.0,92,67,40,29.62,29.41,12,3,12,0.29
2013-9-14,72.9,61.5,54.3,48.5,44.9,41.5,72,55,40,29.91,29.62,11,3,11,0.00
2013-9-15,77.9,62.0,49.6,51.6,45.6,41.2,78,57,32,30.03,29.88,10,2,10,0.00
2013-9-16,70.9,64.1,60.1,59.9,55.6,50.3,84,74,57,30.03,29.85,9,2,9,0.04
2013-9-17,68.9,58.3,51.4,50.5,40.5,35.2,71,53,34,30.24,30.03,12,3,12,0.00
2013-9-18,75.0,59.3,48.2,49.6,44.1,39.3,73,58,39,30.15,29.94,5,2,6,0.00
2013-9-19,79.7,63.2,52.7,54.3,49.6,45.4,85,63,35,30.00,29.82,9,2,9,0.00
2013-9-20,60.8,57.8,56.3,53.3,50.4,49.4,82,76,68,29.91,29.88,6,3,6,0.00
2013-10-5,73.2,69.2,66.9,66.3,64.1,62.3,91,84,75,29.94,29.91,6,1,6,0.00
2013-10-6,74.8,69.6,66.9,69.5,66.7,64.2,94,91,81,29.94,29.85,6,1,6,0.00
2013-10-7,76.3,70.5,68.7,70.6,68.2,66.9,96,92,82,29.88,29.74,8,2,9,0.00
2013-10-9,64.8,62.0,60.4,50.2,48.5,46.6,68,61,55,30.18,30.06,14,5,14,0.00
2013-10-10,68.7,62.5,58.3,61.7,57.1,49.8,95,83,67,30.06,29.85,18,5,18,0.50
2013-10-11,63.9,62.9,62.2,62.6,61.4,59.9,98,95,87,29.88,29.79,17,5,17,1.20
2013-10-12,70.0,64.3,62.1,60.2,56.1,52.3,88,75,62,30.00,29.85,15,4,15,0.00
2013-10-13,68.7,62.2,57.9,53.5,50.4,48.0,77,66,53,30.18,30.12,13,3,14,0.00
2013-10-14,67.5,59.0,52.5,53.2,49.8,47.4,84,72,55,30.18,30.03,8,1,8,0.00
2013-10-15,69.4,57.4,49.6,55.8,50.0,46.0,94,78,51,30.09,29.91,9,1,9,0.00
2013-10-16,68.0,62.6,58.3,60.6,58.5,55.7,94,87,74,29.91,29.76,8,1,8,0.00
2013-10-17,73.2,65.7,61.9,63.5,61.0,59.1,94,85,71,29.76,29.53,9,2,9,0.00
2013-10-18,69.1,61.6,53.2,63.6,45.5,38.4,92,57,37,29.82,29.53,14,4,14,0.00
2013-10-19,66.4,56.8,48.6,56.1,46.0,38.3,90,68,54,29.82,29.59,7,1,7,0.00
2013-10-20,64.4,56.7,49.1,56.2,40.8,33.2,90,58,34,29.82,29.62,12,4,12,0.00
2013-10-21,57.6,55.2,54.0,44.1,42.5,41.5,67,62,55,29.85,29.79,3,1,3,0.00
2013-10-22,71.8,58.6,51.1,48.7,44.2,36.8,78,60,37,29.79,29.53,14,3,14,0.00
2013-10-23,53.6,50.4,44.8,48.5,40.0,32.2,84,68,53,29.62,29.38,6,1,6,0.13
2013-10-24,55.9,45.9,40.3,35.4,30.4,24.6,76,57,36,29.82,29.56,14,4,14,0.00
2013-10-25,56.7,45.7,38.5,32.5,27.8,24.6,63,50,36,30.03,29.82,14,4,14,0.00
2013-10-26,59.0,47.2,36.7,33.8,29.4,26.0,66,51,34,30.03,29.68,20,4,20,0.00
2013-10-27,60.1,51.2,44.1,33.1,30.4,26.8,55,45,34,29.91,29.68,13,4,13,0.00
2013-10-28,64.0,50.0,39.2,36.6,31.1,25.4,65,49,35,30.09,29.91,11,2,11,0.00
2013-10-29,58.6,49.8,43.7,45.2,38.1,33.3,80,65,50,30.18,30.09,13,2,13,0.00
2013-10-30,58.1,51.1,43.2,54.3,46.1,36.8,92,83,73,30.15,30.00,6,0,6,0.04
2013-10-31,68.9,62.3,53.6,61.4,56.5,51.3,95,82,65,30.03,29.65,13,2,13,0.00
2013-11-1,69.6,64.7,60.3,62.3,60.0,57.0,95,85,76,29.65,29.41,20,4,20,0.04
2013-11-2,68.0,60.5,54.0,58.9,52.4,38.4,97,77,47,29.59,29.44,8,1,8,0.00
2013-11-3,56.5,48.7,36.9,40.8,32.0,17.5,73,53,39,30.24,29.59,11,3,11,0.00
2013-11-4,49.1,40.7,34.3,30.3,22.8,16.2,59,49,40,30.41,30.24,13,2,13,0.00
2013-11-5,60.1,49.0,40.6,41.2,36.6,27.4,79,63,47,30.41,30.27,6,1,6,0.00
2013-11-6,63.3,53.7,41.0,55.2,45.0,35.2,87,73,52,30.30,29.88,9,2,9,0.00
2013-11-7,64.4,57.4,41.4,60.5,52.3,33.7,93,83,64,29.88,29.56,14,4,14,0.08
2013-11-8,52.5,44.8,38.5,35.5,27.4,23.6,75,51,37,30.03,29.76,19,4,19,0.00
2013-11-9,54.9,44.6,34.7,31.9,26.1,22.8,62,49,36,30.09,29.79,10,3,10,0.00
2013-11-10,66.2,51.9,44.1,36.1,29.2,22.3,59,43,28,29.85,29.59,25,6,25,0.00
2013-11-11,59.7,49.8,40.5,31.3,26.2,20.5,47,40,33,30.00,29.76,14,5,15,0.00
2013-11-12,51.1,40.8,31.5,32.8,23.0,11.9,73,49,40,30.06,29.71,17,4,17,0.00
2013-11-13,43.7,34.3,27.1,16.9,12.3,9.8,48,40,29,30.15,30.06,14,3,14,0.00
2013-11-14,57.2,42.6,31.6,22.2,17.1,13.1,50,37,22,30.06,29.94,18,6,18,0.00